Theta_e
295 299 308 314 319 323 325 325 326 329 329 329 330 330 330 329 329 329 328 328 328 328 327 327 326 324 324 323 324 324 324 323 323 323 322 321 320 320 320 318 318 318 317
291 296 299 303 309 316 318 320 321 322 324 325 326 327 327 327 327 327 327 328 328 328 326 324 325 325 325 325 324 324 323 323 323 323 322 322 321 319 318 318 318 317 317
288 291 294 295 301 303 309 313 316 317 318 320 322 322 323 324 325 326 327 327 326 326 325 325 325 325 325 325 325 324 324 323 323 323 323 322 320 318 318 318 317 315 316
283 286 288 291 292 296 301 305 308 311 313 314 315 317 319 320 320 321 321 321 324 324 324 324 324 324 324 324 325 324 324 323 323 323 322 321 320 318 317 317 317 316 315
281 282 284 286 291 291 295 299 303 305 308 310 312 313 314 316 318 319 320 320 320 320 321 321 322 322 323 323 323 324 323 323 322 322 321 320 319 318 317 316 316 316 316
280 281 282 283 285 289 292 294 298 300 303 306 308 309 310 312 314 317 319 320 319 318 317 320 320 320 320 321 322 322 322 321 321 321 320 319 318 317 316 316 316 317 315
279 280 281 282 283 285 289 292 293 295 298 301 304 305 307 309 311 313 316 318 317 316 316 316 319 320 321 320 320 321 320 320 320 319 318 317 316 315 315 317 317 317 316
279 279 280 281 282 284 285 287 291 290 294 296 298 301 303 304 306 309 312 313 314 314 314 314 315 316 318 320 319 318 318 317 317 317 317 316 315 315 317 316 316 316 316
278 278 279 280 281 282 283 284 286 287 290 292 295 298 300 302 303 305 308 309 311 312 313 314 315 316 317 319 319 317 317 316 316 315 315 315 315 315 315 316 317 316 314
277 278 278 279 280 281 281 283 284 285 287 289 292 296 299 300 301 301 303 306 308 311 312 314 314 316 317 317 317 317 316 316 316 315 315 315 315 314 314 314 314 314 312
276 277 277 278 280 280 280 281 283 284 286 288 291 295 297 298 298 299 300 302 303 305 308 310 312 314 314 314 315 315 315 316 315 314 313 312 312 313 313 313 313 313 313
275 276 276 277 279 279 280 280 281 283 285 287 290 293 293 293 294 295 296 297 298 299 301 303 306 309 310 311 311 312 312 312 312 312 311 311 311 312 312 312 312 312 311
275 276 276 277 278 278 279 279 280 282 284 285 286 287 288 288 290 292 292 293 295 296 296 298 301 304 305 306 307 308 309 310 310 309 309 310 311 310 310 310 310 310 311
274 275 276 276 277 277 278 278 279 280 281 282 283 283 284 285 287 287 288 289 290 292 293 296 297 299 301 302 303 304 306 307 308 308 308 309 310 309 309 309 309 309 310
274 275 275 276 275 276 276 278 279 279 280 280 280 282 283 283 284 285 285 286 287 288 289 290 292 295 297 299 300 301 303 305 306 307 307 308 309 309 308 308 308 308 308
273 274 274 275 275 275 275 276 278 279 280 280 280 281 281 281 282 283 283 284 285 286 287 289 290 292 295 297 299 300 300 302 303 305 306 307 308 308 308 308 308 308 307
272 273 274 274 275 274 274 275 276 276 278 279 279 279 280 280 281 282 282 283 284 285 286 287 290 292 291 292 292 292 293 295 296 298 299 301 302 303 304 305 306 305 304
272 272 274 274 274 274 274 273 274 275 276 276 277 278 279 279 280 281 281 282 283 284 284 285 286 286 287 287 287 288 289 290 292 292 294 296 297 297 298 299 301 301 301
272 272 273 273 274 275 273 273 273 274 274 275 275 276 276 277 278 278 279 279 279 280 279 280 281 281 282 283 283 284 284 286 286 288 289 290 292 293 294 295 297 298 299
272 272 274 274 274 274 273 272 273 273 273 273 274 274 275 276 276 276 276 276 277 277 277 277 277 278 278 279 280 280 281 282 283 285 285 286 287 289 290 291 293 294 296
271 272 273 274 274 274 273 272 272 273 272 272 272 273 275 276 275 275 275 275 275 275 275 275 275 275 276 277 277 277 278 279 280 281 282 283 284 285 286 288 290 291 293
271 272 272 273 273 273 273 272 272 272 272 272 272 272 273 273 273 273 273 273 273 272 272 273 273 274 274 275 275 275 275 277 278 279 281 282 282 283 284 285 287 289 290
272 272 272 273 273 273 273 273 272 272 271 271 271 271 271 272 272 272 272 271 271 271 271 271 271 272 273 273 273 274 274 275 277 278 279 281 281 282 283 284 285 286 288
272 272 272 273 273 273 273 272 272 272 272 271 271 270 270 270 271 271 271 271 270 270 270 270 271 271 272 272 273 273 274 276 276 277 278 280 281 281 281 282 283 285 286
272 272 272 273 273 273 273 273 273 272 271 271 270 270 270 270 270 269 270 270 269 269 269 270 270 270 271 271 273 273 274 275 275 276 278 280 280 280 280 281 282 283 285
272 272 272 272 272 272 272 272 272 272 271 271 270 270 269 269 269 269 269 269 268 268 269 269 270 270 270 271 272 273 272 274 275 277 278 279 279 279 279 280 281 282 285
Wind_Speed
18 18 22 25 24 30 31 26 27 28 26 25 27 26 24 23 24 24 22 22 22 21 19 19 18 17 19 21 21 18 18 17 14 13 12 8 10 8 10 10 11 12 13
21 18 21 20 22 27 26 25 24 23 23 23 21 22 22 22 23 23 22 21 22 22 20 19 19 16 16 17 20 19 18 19 19 17 14 11 12 11 12 10 11 14 16
20 17 17 20 21 19 19 18 20 18 18 19 20 17 16 15 17 20 20 20 21 19 19 20 18 17 17 18 19 18 19 18 19 19 17 15 12 11 11 11 14 15 15
22 19 21 17 15 14 17 18 16 14 14 14 16 17 17 18 17 17 18 20 18 16 17 16 18 17 18 19 21 21 20 19 19 20 19 18 16 15 14 16 18 17 18
21 21 20 15 16 10 16 17 17 13 11 11 12 12 14 18 18 19 15 17 19 19 19 18 18 20 19 19 19 20 20 20 19 19 19 18 18 17 17 17 16 17 16
23 21 20 15 12 15 16 15 14 11 10 10 11 9 11 11 12 15 16 14 15 16 15 15 15 18 20 21 21 19 19 20 20 21 20 20 22 22 19 19 16 15 7
22 22 21 21 16 18 17 13 14 9 10 6 7 7 8 6 8 12 13 15 14 15 17 16 14 13 19 21 21 22 22 22 21 19 21 22 21 20 18 13 15 16 19
21 23 23 19 22 18 12 14 12 6 11 7 5 4 4 1 3 7 10 9 11 16 16 17 18 20 18 20 22 21 22 22 24 24 23 22 21 20 17 18 17 19 18
18 19 20 18 17 16 14 13 10 8 8 6 3 6 5 2 3 2 8 10 13 14 17 18 17 18 18 19 17 19 20 19 18 19 21 22 22 20 20 21 22 20 15
16 17 18 16 15 16 15 12 10 9 8 8 5 5 5 4 2 2 2 3 6 9 13 15 18 18 13 13 17 18 20 20 17 17 17 18 20 24 24 24 24 22 19
15 14 12 15 14 15 14 12 12 12 12 7 6 4 5 7 8 5 4 2 1 2 3 5 7 10 14 16 17 17 16 16 16 18 20 22 24 26 27 27 25 25 24
15 14 15 14 13 12 12 13 11 10 8 8 7 6 5 4 6 7 4 5 5 2 3 6 9 8 11 15 15 16 17 16 17 20 22 24 27 29 27 26 22 22 22
15 15 14 14 14 13 14 14 13 11 10 8 10 9 9 7 8 5 5 5 4 4 4 6 9 12 14 18 19 18 17 19 21 22 21 22 26 27 26 24 22 21 23
13 14 13 14 14 13 13 12 11 13 11 9 8 10 9 8 8 11 11 9 8 9 10 11 13 13 15 17 16 18 18 21 24 24 24 26 26 26 26 26 26 27 27
10 11 11 12 13 13 12 11 10 9 8 8 6 6 7 7 9 13 14 15 14 13 15 15 14 13 13 14 13 14 14 15 19 22 24 27 27 27 27 26 26 25 28
9 8 10 11 12 11 12 13 8 8 8 7 5 5 7 8 10 12 13 13 14 15 15 13 13 12 12 9 11 12 12 11 11 14 18 23 25 25 26 27 27 27 29
9 8 10 9 10 10 12 11 11 11 7 7 5 7 9 8 11 13 14 14 15 14 12 12 13 6 6 11 13 15 16 15 15 16 16 16 16 19 22 25 26 24 27
9 9 9 9 8 8 9 10 10 10 10 11 9 9 8 10 12 12 11 12 8 9 8 6 6 8 9 11 13 15 15 15 16 18 18 17 17 17 19 22 23 24 25
10 10 9 10 8 8 9 10 9 10 9 11 11 9 10 11 12 10 10 9 9 9 11 10 10 11 12 13 14 15 14 16 15 18 19 19 18 17 19 20 23 24 26
12 12 12 12 10 9 8 8 9 8 9 10 11 11 12 14 11 11 11 11 10 10 11 12 12 12 13 12 13 15 15 16 18 19 19 17 17 16 17 18 20 21 23
13 13 12 13 11 10 9 9 9 9 9 10 11 11 11 10 9 9 9 8 9 9 9 10 12 12 12 13 13 14 14 14 13 14 15 14 16 18 19 18 18 20 22
13 13 13 14 13 12 13 11 9 11 10 11 11 12 10 10 8 9 9 9 10 11 10 10 11 11 12 12 14 15 14 13 13 13 14 17 20 21 21 20 20 19 19
14 14 16 17 16 15 14 13 12 11 11 11 12 13 11 10 11 11 11 12 12 13 13 12 12 13 12 13 15 15 16 16 15 15 19 20 22 22 22 21 21 21 21
16 17 18 19 18 17 17 17 16 14 12 12 12 13 12 11 12 13 12 13 14 15 16 13 14 15 14 15 16 17 18 17 16 18 19 23 24 24 24 24 23 24 25
15 17 19 18 19 19 17 15 15 17 16 15 14 14 14 13 15 15 14 15 16 17 17 16 16 15 17 18 17 16 18 17 20 20 21 24 25 26 26 27 26 26 26
20 21 22 22 22 21 20 20 20 19 18 16 16 15 15 15 16 15 15 18 17 17 19 19 18 18 18 18 18 18 17 20 21 19 23 24 26 24 25 26 26 26 25
Wind_Direction
35 37 84 105 126 135 136 137 146 161 170 176 181 185 190 193 191 194 199 200 204 207 217 227 237 240 235 233 232 234 240 236 234 253 268 255 219 248 279 292 296 296 291
30 66 71 87 107 123 132 138 140 144 157 160 172 183 189 196 199 206 210 207 210 213 216 233 229 237 239 234 234 241 234 235 239 247 258 251 249 261 276 278 273 282 288
21 49 70 64 90 101 125 137 147 154 161 173 174 176 182 193 208 212 213 215 220 219 222 222 231 230 228 222 225 229 239 237 240 243 249 256 255 268 244 258 276 286 286
31 38 56 54 70 94 115 123 130 144 153 159 173 190 203 203 207 212 219 223 220 220 220 224 230 234 233 235 232 238 230 232 239 244 245 252 255 257 265 270 273 281 286
28 29 38 43 66 85 98 106 117 131 146 156 173 191 209 212 213 215 214 227 231 229 232 231 236 238 240 241 241 236 237 243 238 239 236 244 257 260 264 279 281 290 284
20 32 36 34 42 64 79 85 100 111 123 142 147 171 196 214 224 220 218 216 206 218 230 229 242 247 246 243 240 243 242 242 236 233 235 247 258 263 280 278 272 266 296
17 28 29 25 21 41 57 74 76 87 101 106 137 155 162 158 200 218 223 220 215 227 234 244 249 250 249 248 245 242 242 244 248 254 254 260 266 275 279 263 256 261 275
19 23 22 25 27 33 41 53 71 42 92 76 64 94 111 110 246 227 226 227 226 236 241 246 251 253 256 251 253 245 241 241 244 249 256 264 272 272 263 271 273 279 275
10 13 15 10 24 23 29 33 41 31 73 51 59 61 66 41 342 296 244 242 243 243 243 243 246 254 254 248 243 244 247 247 250 259 264 267 272 268 267 265 265 268 269
10 6 18 354 14 17 10 18 24 24 22 32 14 72 50 25 57 355 314 229 228 238 247 248 245 248 251 246 245 242 245 249 254 264 266 269 273 273 267 265 266 255 257
8 12 5 3 8 16 9 352 13 18 28 2 32 64 57 88 74 55 39 92 42 248 227 250 254 242 243 253 260 256 247 254 254 255 264 270 273 272 269 271 269 260 250
5 12 14 16 13 3 7 3 13 18 18 13 28 67 34 15 10 29 39 44 29 359 313 267 264 258 253 254 255 257 259 258 259 263 269 270 267 265 269 277 274 270 268
6 8 9 10 14 12 12 10 8 20 24 25 18 27 12 7 22 1 14 14 12 352 339 295 289 275 280 279 273 268 264 261 261 263 263 255 260 271 276 271 273 281 284
4 4 4 8 5 13 13 14 8 17 23 18 18 4 353 331 347 354 348 331 327 312 306 297 294 291 285 288 287 276 269 262 261 263 264 269 274 270 264 270 271 277 277
5 5 5 3 5 5 2 1 357 1 359 349 339 331 332 332 328 331 330 327 322 313 312 300 303 302 293 292 296 289 286 274 267 265 266 269 271 271 269 270 269 274 270
352 357 354 357 1 1 358 357 8 4 349 339 333 325 320 313 321 326 323 317 309 303 299 295 295 298 301 305 301 295 284 283 290 285 275 267 267 271 273 276 273 270 264
325 332 337 338 347 355 353 356 352 354 359 5 349 339 335 328 328 327 323 319 309 305 278 278 282 278 302 305 307 308 310 304 301 294 294 291 290 289 280 276 277 276 270
303 303 304 318 327 340 346 343 343 340 347 348 345 343 347 343 336 334 335 332 342 339 20 359 337 319 312 311 310 309 309 307 306 307 304 300 296 297 295 291 283 277 272
293 295 286 292 310 309 330 335 334 337 340 336 339 347 346 345 345 353 358 12 355 348 346 348 335 323 315 309 307 304 302 304 309 307 308 307 305 305 300 298 293 286 283
281 281 277 274 286 289 305 315 321 327 328 331 333 335 337 342 357 360 2 2 4 355 347 342 336 328 324 320 317 312 311 309 302 301 302 306 307 304 305 302 297 288 282
270 267 268 270 262 273 276 288 299 305 314 314 315 322 322 335 344 343 344 348 349 342 338 334 331 328 325 324 320 320 318 314 316 314 315 314 313 313 306 301 296 291 287
264 262 258 261 262 263 262 273 278 289 297 301 310 311 315 318 321 321 325 328 324 321 320 320 320 318 318 317 314 318 320 314 317 324 318 320 318 314 306 299 294 287 284
257 258 258 259 255 256 258 262 270 276 280 286 296 301 304 308 305 308 311 314 316 316 315 318 317 311 313 309 310 315 311 308 307 319 328 324 315 307 300 293 290 286 278
260 258 260 260 252 252 247 249 255 253 266 275 280 284 288 289 294 298 299 302 306 309 310 316 319 312 312 314 315 313 306 299 300 311 316 314 313 308 300 292 288 282 278
264 261 259 260 251 252 253 249 253 249 257 263 268 277 281 279 282 289 294 297 298 299 309 314 317 314 312 312 310 307 304 306 306 304 302 309 310 309 296 289 287 283 275
260 262 260 257 254 250 246 246 248 249 249 251 263 270 277 283 288 294 287 293 300 301 309 310 311 311 309 309 310 308 307 305 303 302 303 307 310 308 302 294 290 286 279